DW0243 Weather Reports


time (UTC)temp
C
wind
direction
speed
KPH
gust
KPH
rain 1hr
cm
rain 24hr
cm
rain mn
cm
humidity
%
barometer
mb
20260904075452 21 135 3.2 12.9 0.00 0.05 0.03 86 1015.4
20260904074444 21 222 0.0 11.3 0.00 0.05 0.03 86 1015.4
20260904073443 21 198 3.2 9.7 0.00 0.05 0.03 87 1015.4
20260904072444 21 191 4.8 9.7 0.00 0.05 0.03 90 1015.5
20260904071444 20 213 1.6 11.3 0.00 0.05 0.03 91 1015.6
20260904070444 20 190 3.2 8.0 0.00 0.05 0.03 91 1015.7
20260904063443 19 193 0.0 6.4 0.00 0.05 0.03 92 1015.9
20260904062442 18 228 3.2 8.0 0.00 0.05 0.03 92 1016.2
20260904061446 18 202 0.0 6.4 0.00 0.05 0.03 93 1016.2
20260904060452 18 198 0.0 4.8 0.00 0.05 0.03 93 1016.3
20260904053445 18 222 1.6 6.4 0.00 0.05 0.03 93 1016.5
20260904051446 18 202 1.6 6.4 0.00 0.05 0.03 93 1016.5
20260904050440 18 175 1.6 6.4 0.00 0.05 0.03 93 1016.4
20260904044442 18 179 0.0 3.2 0.00 0.05 0.03 93 1016.6
20260904043448 18 179 0.0 3.2 0.00 0.05 0.03 93 1016.6
20260904041439 18 203 1.6 6.4 0.00 0.05 0.03 93 1016.7
20260904040440 18 215 0.0 4.8 0.00 0.05 0.03 93 1016.7
20260904035440 18 219 0.0 3.2 0.00 0.05 0.03 93 1016.8
20260904034450 18 219 0.0 3.2 0.00 0.05 0.03 93 1016.9
20260904031436 18 221 0.0 3.2 0.00 0.05 0.03 93 1017.2
20260904025442 18 221 1.6 8.0 0.00 0.05 0.03 93 1017.3
20260904024438 18 165 1.6 6.4 0.00 0.05 0.03 93 1017.3
20260904023434 18 164 3.2 9.7 0.00 0.05 0.03 92 1017.4
20260904022434 18 166 1.6 8.0 0.00 0.05 0.03 92 1017.7
20260904021435 18 163 1.6 6.4 0.00 0.05 0.03 92 1017.7
20260904020436 18 163 1.6 8.0 0.00 0.05 0.03 91 1017.7
20260904015436 18 160 1.6 9.7 0.00 0.05 0.03 91 1017.8
20260904014437 19 201 0.0 6.4 0.00 0.05 0.03 91 1017.6
20260904012438 19 159 1.6 8.0 0.00 0.05 0.03 90 1017.8
20260904011433 19 187 1.6 8.0 0.00 0.05 0.03 90 1018.0
20260904010435 19 227 3.2 8.0 0.00 0.05 0.03 90 1018.1
20260904005435 19 250 0.0 8.0 0.00 0.05 0.03 90 1018.1
20260904004433 19 183 1.6 6.4 0.00 0.05 0.03 90 1018.1
20260904003437 19 165 0.0 8.0 0.00 0.05 0.03 90 1018.0
20260904002434 19 239 3.2 6.4 0.00 0.05 0.03 90 1018.2
20260904000435 19 276 1.6 11.3 0.03 0.05 0.03 91 1018.4
20260903235453 19 225 3.2 9.7 0.03 0.03 0.03 92 1018.5
20260903233432 18 215 1.6 8.0 0.03 0.03 0.03 92 1018.8
20260903232433 18 225 1.6 6.4 0.03 0.03 0.03 92 1018.9
20260903231435 18 228 0.0 9.7 0.00 0.03 0.00 92 1018.9
20260903230437 18 189 1.6 4.8 0.00 0.03 0.00 91 1018.8
20260903225434 18 188 0.0 4.8 0.00 0.03 0.00 91 1019.0
20260903224439 19 188 0.0 4.8 0.00 0.03 0.00 91 1019.1
20260903221437 19 184 0.0 4.8 0.00 0.03 0.00 90 1019.4
20260903220434 19 185 0.0 8.0 0.00 0.03 0.00 89 1019.4
20260903215434 19 167 1.6 6.4 0.00 0.03 0.03 89 1019.4
20260903214431 19 185 0.0 4.8 0.00 0.03 0.03 89 1019.5
20260903213441 18 185 0.0 4.8 0.00 0.03 0.03 90 1019.5
20260903212433 18 185 0.0 3.2 0.00 0.03 0.03 91 1019.5
20260903210431 18 186 0.0 4.8 0.00 0.03 0.03 91 1019.4
20260903205437 18 186 0.0 3.2 0.00 0.03 0.03 91 1019.6
20260903204431 18 185 0.0 4.8 0.00 0.03 0.03 92 1019.6
20260903203430 18 187 0.0 4.8 0.00 0.03 0.03 92 1019.6
20260903202428 18 186 0.0 3.2 0.00 0.03 0.03 92 1019.4
20260903201430 18 182 1.6 6.4 0.00 0.03 0.03 92 1019.4
20260903195432 18 184 1.6 6.4 0.00 0.03 0.03 91 1019.5
20260903194429 18 193 0.0 3.2 0.00 0.03 0.03 91 1019.6
20260903193429 18 193 1.6 6.4 0.00 0.03 0.03 90 1019.6
20260903192436 19 192 1.6 6.4 0.00 0.03 0.03 90 1019.7
20260903191429 19 209 0.0 3.2 0.00 0.03 0.03 89 1019.7
20260903190429 19 235 0.0 3.2 0.00 0.03 0.03 88 1019.6
20260903185430 19 246 0.0 8.0 0.00 0.03 0.03 87 1019.6
20260903184426 19 227 0.0 4.8 0.00 0.03 0.03 87 1019.5
20260903183431 19 229 0.0 1.6 0.00 0.03 0.03 86 1019.3
20260903182426 20 230 0.0 8.0 0.00 0.03 0.03 85 1019.3
20260903175432 20 184 1.6 4.8 0.00 0.03 0.03 84 1019.4
20260903173424 20 167 3.2 16.1 0.00 0.03 0.03 83 1019.4
20260903172423 20 242 0.0 20.9 0.00 0.03 0.03 83 1019.5
20260903170432 20 244 3.2 11.3 0.00 0.03 0.03 84 1019.2
20260903165432 20 240 0.0 12.9 0.00 0.03 0.03 84 1019.4
20260903164422 20 223 1.6 11.3 0.00 0.03 0.03 85 1019.3
20260903163424 20 259 1.6 14.5 0.00 0.03 0.03 85 1019.4
20260903162425 20 259 4.8 17.7 0.00 0.03 0.03 85 1019.5
20260903155423 20 261 3.2 16.1 0.00 0.03 0.03 84 1019.3
20260903154423 20 236 4.8 20.9 0.00 0.03 0.03 84 1019.4
20260903151430 21 296 6.4 14.5 0.00 0.03 0.03 78 1019.3
20260903150440 21 263 3.2 12.9 0.00 0.03 0.03 75 1019.2
20260903145422 21 290 8.0 12.9 0.00 0.03 0.03 74 1019.0
20260903144420 22 212 1.6 14.5 0.00 0.03 0.03 74 1018.9
20260903142421 21 253 3.2 20.9 0.00 0.03 0.03 73 1019.1
20260903141426 21 287 9.7 17.7 0.00 0.03 0.03 72 1019.2
20260903140420 21 185 6.4 16.1 0.00 0.03 0.03 72 1019.0
20260903134417 21 246 0.0 8.0 0.00 0.03 0.03 74 1019.1
20260903133417 21 182 1.6 8.0 0.00 0.03 0.03 74 1019.2
20260903132432 20 237 3.2 12.9 0.00 0.03 0.03 74 1019.2
20260903131428 20 243 1.6 9.7 0.00 0.03 0.03 74 1019.1
20260903130419 20 223 4.8 16.1 0.00 0.03 0.03 74 1019.2
20260903125417 20 246 6.4 17.7 0.00 0.03 0.03 73 1019.2
20260903124419 20 187 6.4 14.5 0.00 0.03 0.03 73 1019.3
20260903123417 20 251 4.8 14.5 0.00 0.03 0.03 74 1019.2
20260903122428 20 243 4.8 12.9 0.00 0.03 0.03 74 1019.2
20260903121420 20 247 1.6 6.4 0.00 0.03 0.03 76 1019.0
20260903120415 20 252 3.2 14.5 0.00 0.03 0.03 74 1019.3
20260903115416 20 256 9.7 16.1 0.00 0.03 0.03 73 1019.3
20260903114433 20 176 1.6 16.1 0.00 0.03 0.03 74 1019.3
20260903113423 19 225 1.6 8.0 0.03 0.03 0.03 78 1019.4
20260903112418 18 183 0.0 0.0 0.03 0.03 0.03 87 1019.4
20260903111415 18 183 0.0 0.0 0.03 0.03 0.03 87 1019.6
20260903110416 18 183 0.0 0.0 0.03 0.03 0.03 84 1019.6
20260903105414 18 183 0.0 0.0 0.03 0.00 0.03 84 1019.7
20260903104418 18 183 0.0 0.0 0.03 0.00 0.03 80 1019.8
20260903103414 18 183 0.0 1.6 0.00 0.00 0.00 79 1019.7
20260903102414 18 183 0.0 4.8 0.00 0.00 0.00 76 1019.5
20260903101413 18 183 1.6 14.5 0.00 0.00 0.00 73 1019.9
20260903100413 18 202 0.0 4.8 0.00 0.00 0.00 74 1019.9
20260903095423 18 207 0.0 6.4 0.00 0.00 0.00 73 1019.9
20260903094412 18 201 0.0 8.0 0.00 0.00 0.00 73 1020.1
20260903093413 18 169 0.0 8.0 0.00 0.00 0.00 73 1019.8
20260903091412 18 195 0.0 4.8 0.00 0.00 0.00 73 1019.9
20260903090419 18 196 1.6 6.4 0.00 0.00 0.00 73 1019.9
20260903083412 18 188 1.6 9.7 0.00 0.00 0.00 74 1020.2